Location: Olda
(45.8833°N, 9.5500°E)
Time: 17:25:07
(UTC+00:00)

Cosmos 2322 Rocket - Pass Details

Date: 03 March 2021
Orbit: 832 x 852 km, 71.0° (Epoch: 11 April)

Event Time Altitude Azimuth Distance (km) Brightness Sun altitude
Rises 19:07:16 0° 232° (SW) 3,367 5.9 -20.9°
Reaches altitude 10° 19:09:54 10° 241° (WSW) 2,437 5.2 -21.3°
Maximum altitude 19:15:00 35° 306° (NW) 1,316 3.7 -22.2°
Drops below altitude 10° 19:20:09 10° 12° (NNE) 2,457 4.6 -23.0°
Sets 19:22:49 0° 22° (NNE) 3,398 5.3 -23.5°
